CW6641 Weather Reports


Display with metric or nautical units.
time (UTC)temp
F
wind
direction
speed
MPH
gust
MPH
rain 1hr
in
rain 24hr
in
rain mn
in
humidity
%
barometer
mb
20260510201016 74 0.0 0.0 0.00 0.00 0.00 37 1017.5
20260510200512 74 0.0 0.0 0.00 0.00 0.00 38 1017.3
20260510200010 73 0.0 0.0 0.00 0.00 0.00 36 1017.4
20260510195508 73 0.0 0.0 0.00 0.00 0.00 38 1017.3
20260510195003 73 0.0 0.0 0.00 0.00 0.00 38 1017.3
20260510194459 73 0.0 0.0 0.00 0.00 0.00 41 1017.1
20260510193955 73 0.0 0.0 0.00 0.00 0.00 40 1017.2
20260510193450 73 0.0 0.0 0.00 0.00 0.00 38 1017.0
20260510192945 73 0.0 0.0 0.00 0.00 0.00 38 1017.2
20260510192446 73 0.0 0.0 0.00 0.00 0.00 41 1017.4
20260510191942 73 0.0 0.0 0.00 0.00 0.00 43 1017.3
20260510191438 73 0.0 0.0 0.00 0.00 0.00 43 1017.1
20260510190936 73 0.0 0.0 0.00 0.00 0.00 44 1017.1
20260510190433 73 0.0 0.0 0.00 0.00 0.00 43 1017.2
20260510185930 73 0.0 0.0 0.00 0.00 0.00 45 1017.1
20260510185427 73 0.0 0.0 0.00 0.00 0.00 43 1017.1
20260510184924 73 0.0 0.0 0.00 0.00 0.00 44 1017.0
20260510184421 73 0.0 0.0 0.00 0.00 0.00 42 1016.9
20260510183920 73 0.0 0.0 0.00 0.00 0.00 44 1017.0
20260510183418 73 0.0 0.0 0.00 0.00 0.00 44 1017.1
20260510182913 73 0.0 0.0 0.00 0.00 0.00 44 1016.9
20260510182409 73 0.0 0.0 0.00 0.00 0.00 46 1017.0
20260510181905 73 0.0 0.0 0.00 0.00 0.00 48 1016.9
20260510181403 72 0.0 0.0 0.00 0.00 0.00 46 1016.9
20260510180859 72 0.0 0.0 0.00 0.00 0.00 44 1017.1
20260510180356 72 0.0 0.0 0.00 0.00 0.00 47 1017.0
20260510175853 71 0.0 0.0 0.00 0.00 0.00 47 1017.2
20260510175349 71 0.0 0.0 0.00 0.00 0.00 45 1017.1
20260510174845 71 0.0 0.0 0.00 0.00 0.00 45 1017.5
20260510174343 71 0.0 0.0 0.00 0.00 0.00 47 1017.3
20260510173839 71 0.0 0.0 0.00 0.00 0.00 46 1017.2
20260510173335 71 0.0 0.0 0.00 0.00 0.00 44 1017.4
20260510172831 71 0.0 0.0 0.00 0.00 0.00 46 1017.6
20260510172327 71 0.0 0.0 0.00 0.00 0.00 47 1017.7
20260510171824 71 0.0 0.0 0.00 0.00 0.00 46 1017.7
20260510171321 71 0.0 0.0 0.00 0.00 0.00 50 1017.7
20260510170818 71 0.0 0.0 0.00 0.00 0.00 50 1017.7
20260510170314 70 0.0 0.0 0.00 0.00 0.00 50 1017.8
20260510165809 70 0.0 0.0 0.00 0.00 0.00 52 1017.6
20260510165307 70 0.0 0.0 0.00 0.00 0.00 51 1017.5
20260510164803 69 0.0 0.0 0.00 0.00 0.00 53 1017.2
20260510164301 69 0.0 0.0 0.00 0.00 0.00 52 1017.4
20260510163801 69 0.0 0.0 0.00 0.00 0.00 55 1017.6
20260510163257 69 0.0 0.0 0.00 0.00 0.00 53 1017.5
20260510162756 69 0.0 0.0 0.00 0.00 0.00 53 1017.5
20260510162254 68 0.0 0.0 0.00 0.00 0.00 53 1017.2
20260510161749 68 0.0 0.0 0.00 0.00 0.00 53 1017.5
20260510161246 69 0.0 0.0 0.00 0.00 0.00 53 1017.4
20260510160743 69 0.0 0.0 0.00 0.00 0.00 53 1017.1
20260510160239 69 0.0 0.0 0.00 0.00 0.00 54 1017.2
20260510155734 69 0.0 0.0 0.00 0.00 0.00 55 1017.2
20260510155230 69 0.0 0.0 0.00 0.00 0.00 56 1017.1
20260510154726 69 0.0 0.0 0.00 0.00 0.00 55 1016.8
20260510154222 69 0.0 0.0 0.00 0.00 0.00 54 1016.7
20260510153718 69 0.0 0.0 0.00 0.00 0.00 56 1016.7
20260510153214 69 0.0 0.0 0.00 0.00 0.00 55 1016.8
20260510152710 68 0.0 0.0 0.00 0.00 0.00 57 1016.8
20260510152206 68 0.0 0.0 0.00 0.00 0.00 58 1016.5
20260510151704 68 0.0 0.0 0.00 0.00 0.00 59 1016.5
20260510151202 68 0.0 0.0 0.00 0.00 0.00 60 1016.2
20260510150657 68 0.0 0.0 0.00 0.00 0.00 60 1016.1
20260510150153 67 0.0 0.0 0.00 0.00 0.00 61 1016.2
20260510145649 67 0.0 0.0 0.00 0.00 0.00 60 1016.2
20260510145146 67 0.0 0.0 0.00 0.00 0.00 61 1016.5
20260510144642 67 0.0 0.0 0.00 0.00 0.00 62 1016.3
20260510144138 67 0.0 0.0 0.00 0.00 0.00 62 1016.3
20260510143634 67 0.0 0.0 0.00 0.00 0.00 62 1016.3
20260510143131 67 0.0 0.0 0.00 0.00 0.00 63 1016.3
20260510142627 67 0.0 0.0 0.00 0.00 0.00 63 1016.2
20260510142124 67 0.0 0.0 0.00 0.00 0.00 63 1016.2
20260510141621 67 0.0 0.0 0.00 0.00 0.00 62 1016.4
20260510141120 66 0.0 0.0 0.00 0.00 0.00 61 1016.2
20260510140615 66 0.0 0.0 0.00 0.00 0.00 64 1016.2
20260510140114 66 0.0 0.0 0.00 0.00 0.00 62 1016.1
20260510135610 66 0.0 0.0 0.00 0.00 0.00 64 1016.0
20260510135106 66 0.0 0.0 0.00 0.00 0.00 65 1016.3
20260510134603 66 0.0 0.0 0.00 0.00 0.00 65 1015.7
20260510134100 65 0.0 0.0 0.00 0.00 0.00 66 1016.0
20260510133556 65 0.0 0.0 0.00 0.00 0.00 65 1015.9
20260510133052 65 0.0 0.0 0.00 0.00 0.00 68 1015.9
20260510132549 65 0.0 0.0 0.00 0.00 0.00 68 1015.9
20260510132046 65 0.0 0.0 0.00 0.00 0.00 68 1016.0
20260510131544 65 0.0 0.0 0.00 0.00 0.00 69 1015.9
20260510131041 64 0.0 0.0 0.00 0.00 0.00 70 1016.0
20260510130537 64 0.0 0.0 0.00 0.00 0.00 70 1015.8
20260510130035 64 0.0 0.0 0.00 0.00 0.00 72 1015.6
20260510125531 64 0.0 0.0 0.00 0.00 0.00 72 1015.6
20260510125027 64 0.0 0.0 0.00 0.00 0.00 73 1015.6
20260510124524 64 0.0 0.0 0.00 0.00 0.00 73 1015.7
20260510124021 64 0.0 0.0 0.00 0.00 0.00 73 1015.5
20260510123516 63 0.0 0.0 0.00 0.00 0.00 74 1015.4
20260510123012 62 0.0 0.0 0.00 0.00 0.00 75 1015.2
20260510122508 62 0.0 0.0 0.00 0.00 0.00 76 1015.2
20260510122004 61 0.0 0.0 0.00 0.00 0.00 77 1015.0
20260510121501 61 0.0 0.0 0.00 0.00 0.00 77 1014.8
20260510120959 60 0.0 0.0 0.00 0.00 0.00 77 1014.9
20260510120456 60 0.0 0.0 0.00 0.00 0.00 76 1014.7
20260510115951 60 0.0 0.0 0.00 0.00 0.00 77 1014.7
20260510115449 60 0.0 0.0 0.00 0.00 0.00 76 1014.6
20260510114945 60 0.0 0.0 0.00 0.00 0.00 76 1014.7
20260510114442 60 0.0 0.0 0.00 0.00 0.00 76 1014.3
20260510113937 60 0.0 0.0 0.00 0.00 0.00 76 1013.9
20260510113433 60 0.0 0.0 0.00 0.00 0.00 75 1014.0
20260510112931 60 0.0 0.0 0.00 0.00 0.00 75 1013.7
20260510112428 60 0.0 0.0 0.00 0.00 0.00 74 1013.7
20260510111924 60 0.0 0.0 0.00 0.00 0.00 74 1013.7
20260510111420 60 0.0 0.0 0.00 0.00 0.00 73 1013.7
20260510110916 60 0.0 0.0 0.00 0.00 0.00 73 1013.4
20260510110412 61 0.0 0.0 0.00 0.00 0.00 73 1013.2
20260510105908 61 0.0 0.0 0.00 0.00 0.00 73 1013.5
20260510105403 61 0.0 0.0 0.00 0.00 0.00 73 1013.2
20260510104859 61 0.0 0.0 0.00 0.00 0.00 73 1013.2
20260510104356 61 0.0 0.0 0.00 0.00 0.00 73 1013.2
20260510103852 61 0.0 0.0 0.00 0.00 0.00 72 1013.1
20260510103349 61 0.0 0.0 0.00 0.00 0.00 71 1012.9
20260510102845 62 0.0 0.0 0.00 0.00 0.00 71 1013.2
20260510102341 62 0.0 0.0 0.00 0.00 0.00 71 1013.0
20260510101838 62 0.0 0.0 0.00 0.00 0.00 71 1012.9
20260510101337 62 0.0 0.0 0.00 0.00 0.00 69 1012.7
20260510100832 62 0.0 0.0 0.00 0.00 0.00 69 1012.9
20260510100330 63 0.0 0.0 0.00 0.00 0.00 68 1012.8
20260510095826 63 0.0 0.0 0.00 0.00 0.00 67 1012.7
20260510095321 63 0.0 0.0 0.00 0.00 0.00 67 1012.7
20260510094820 63 0.0 0.0 0.00 0.00 0.00 67 1012.7
20260510094316 63 0.0 0.0 0.00 0.00 0.00 66 1012.5
20260510093813 64 0.0 0.0 0.00 0.00 0.00 66 1012.5
20260510093309 64 0.0 0.0 0.00 0.00 0.00 65 1012.6
20260510092805 64 0.0 0.0 0.00 0.00 0.00 64 1012.7
20260510092301 64 0.0 0.0 0.00 0.00 0.00 64 1012.6
20260510091757 64 0.0 0.0 0.00 0.00 0.00 63 1012.8
20260510091255 64 0.0 0.0 0.00 0.00 0.00 63 1012.8
20260510090751 64 0.0 0.0 0.00 0.00 0.00 63 1012.9
20260510090248 64 0.0 0.0 0.00 0.00 0.00 63 1012.8
20260510085743 64 0.0 0.0 0.00 0.00 0.00 63 1012.9
20260510085238 64 0.0 0.0 0.00 0.00 0.00 63 1013.0
20260510084734 64 0.0 0.0 0.00 0.00 0.00 64 1012.9
20260510084231 64 0.0 0.0 0.00 0.00 0.00 64 1012.7
20260510083727 64 0.0 0.0 0.00 0.00 0.00 63 1013.0
20260510083225 64 0.0 0.0 0.00 0.00 0.00 63 1012.9
20260510082720 64 0.0 0.0 0.00 0.00 0.00 63 1012.8
20260510082217 64 0.0 0.0 0.00 0.00 0.00 63 1012.7
20260510081716 64 0.0 0.0 0.00 0.00 0.00 63 1012.7
20260510081213 64 0.0 0.0 0.00 0.00 0.00 63 1012.6
20260510080707 64 0.0 0.0 0.00 0.00 0.00 63 1012.6
20260510080203 64 0.0 0.0 0.00 0.00 0.00 64 1012.5
20260510075700 64 0.0 0.0 0.00 0.00 0.00 64 1012.4
20260510075158 64 0.0 0.0 0.00 0.00 0.00 64 1012.7
20260510074655 64 0.0 0.0 0.00 0.00 0.00 64 1012.7
20260510074151 64 0.0 0.0 0.00 0.00 0.00 65 1011.8
20260510073648 64 0.0 0.0 0.00 0.00 0.00 65 1011.7
20260510073144 64 0.0 0.0 0.00 0.00 0.00 65 1011.6
20260510072639 64 0.0 0.0 0.00 0.00 0.00 66 1011.5
20260510072136 64 0.0 0.0 0.00 0.00 0.00 66 1011.4
20260510071632 64 0.0 0.0 0.00 0.00 0.00 66 1011.5
20260510071130 64 0.0 0.0 0.00 0.00 0.00 65 1011.5
20260510070627 64 0.0 0.0 0.00 0.00 0.00 66 1011.5
20260510070125 64 0.0 0.0 0.00 0.00 0.00 66 1011.4
20260510065620 64 0.0 0.0 0.00 0.00 0.00 66 1011.5
20260510065116 64 0.0 0.0 0.00 0.00 0.00 66 1011.6
20260510064613 64 0.0 0.0 0.00 0.00 0.00 66 1011.4
20260510064110 64 0.0 0.0 0.00 0.00 0.00 66 1011.5
20260510063607 64 0.0 0.0 0.00 0.00 0.00 66 1011.4
20260510063104 65 0.0 0.0 0.00 0.00 0.00 65 1011.3
20260510062559 65 0.0 0.0 0.00 0.00 0.00 65 1011.3
20260510062055 65 0.0 0.0 0.00 0.00 0.00 65 1011.3
20260510061551 65 0.0 0.0 0.00 0.00 0.00 65 1011.3
20260510061048 65 0.0 0.0 0.00 0.00 0.00 66 1011.4
20260510060545 65 0.0 0.0 0.00 0.00 0.00 66 1011.4
20260510060041 65 0.0 0.0 0.00 0.00 0.00 66 1011.4
20260510055537 65 0.0 0.0 0.00 0.00 0.00 66 1011.4
20260510055036 65 0.0 0.0 0.00 0.00 0.00 65 1011.4
20260510054531 65 0.0 0.0 0.00 0.00 0.00 65 1011.5
20260510054026 65 0.0 0.0 0.00 0.00 0.00 64 1011.5
20260510053521 65 0.0 0.0 0.00 0.00 0.00 64 1011.3
20260510053018 66 0.0 0.0 0.00 0.00 0.00 64 1011.3
20260510052514 65 0.0 0.0 0.00 0.00 0.00 64 1011.3
20260510052010 65 0.0 0.0 0.00 0.00 0.00 65 1011.4
20260510051506 66 0.0 0.0 0.00 0.00 0.00 65 1011.6
20260510051003 66 0.0 0.0 0.00 0.00 0.00 65 1011.5
20260510050500 66 0.0 0.0 0.00 0.00 0.00 65 1011.4
20260510045957 66 0.0 0.0 0.00 0.02 0.02 65 1011.6
20260510045454 66 0.0 0.0 0.00 0.02 0.02 64 1011.4
20260510044950 66 0.0 0.0 0.00 0.02 0.02 64 1011.6
20260510044447 66 0.0 0.0 0.00 0.02 0.02 64 1011.4
20260510043944 66 0.0 0.0 0.00 0.02 0.02 64 1011.4
20260510043440 66 0.0 0.0 0.00 0.02 0.02 64 1011.5
20260510042938 66 0.0 0.0 0.00 0.02 0.02 63 1011.4
20260510042434 67 0.0 0.0 0.00 0.02 0.02 63 1011.6
20260510041930 67 0.0 0.0 0.00 0.02 0.02 63 1011.4
20260510041427 67 0.0 0.0 0.00 0.02 0.02 63 1011.4
20260510040925 67 0.0 0.0 0.00 0.02 0.02 63 1011.4
20260510040422 67 0.0 0.0 0.00 0.02 0.02 63 1011.3
20260510035917 67 0.0 0.0 0.00 0.02 0.02 63 1011.4
20260510035414 67 0.0 0.0 0.00 0.02 0.02 64 1011.5
20260510034914 67 0.0 0.0 0.00 0.02 0.02 63 1011.4
20260510034413 67 0.0 0.0 0.00 0.02 0.02 63 1011.4
20260510033908 67 0.0 0.0 0.00 0.02 0.02 62 1011.4
20260510033405 68 0.0 0.0 0.00 0.02 0.02 62 1011.5
20260510032901 68 0.0 0.0 0.00 0.02 0.02 62 1011.5
20260510032358 68 0.0 0.0 0.00 0.02 0.02 62 1011.5
20260510031854 68 0.0 0.0 0.00 0.02 0.02 62 1011.6
20260510031349 68 0.0 0.0 0.00 0.02 0.02 61 1011.5
20260510030849 68 0.0 0.0 0.00 0.02 0.02 60 1011.4
20260510030346 68 0.0 0.0 0.00 0.02 0.02 60 1011.3
20260510025844 68 0.0 0.0 0.00 0.02 0.02 60 1011.5
20260510025341 69 0.0 0.0 0.00 0.02 0.02 59 1011.3
20260510024838 69 0.0 0.0 0.00 0.02 0.02 59 1011.3
20260510024334 69 0.0 0.0 0.00 0.02 0.02 59 1011.2
20260510023830 69 0.0 0.0 0.00 0.02 0.02 58 1011.1
20260510023327 69 0.0 0.0 0.00 0.02 0.02 58 1011.4
20260510022824 69 0.0 0.0 0.00 0.02 0.02 58 1011.2
20260510022323 70 0.0 0.0 0.00 0.02 0.02 57 1011.3
20260510021823 70 0.0 0.0 0.00 0.02 0.02 56 1011.2
20260510021321 70 0.0 0.0 0.00 0.02 0.02 55 1011.1
20260510020817 71 0.0 0.0 0.00 0.02 0.02 55 1011.1
20260510020312 71 0.0 0.0 0.00 0.02 0.02 55 1011.0
20260510015808 71 0.0 0.0 0.00 0.02 0.02 54 1011.0
20260510015306 71 0.0 0.0 0.00 0.02 0.02 54 1010.6
20260510014759 71 0.0 0.0 0.00 0.02 0.02 54 1010.7
20260510014256 71 0.0 0.0 0.00 0.02 0.02 54 1010.6
20260510013752 72 0.0 0.0 0.00 0.02 0.02 53 1010.5
20260510013248 72 0.0 0.0 0.00 0.02 0.02 52 1010.5
20260510012743 72 0.0 0.0 0.00 0.02 0.02 52 1010.4
20260510012238 73 0.0 0.0 0.00 0.02 0.02 51 1010.2
20260510011738 73 0.0 0.0 0.00 0.02 0.02 51 1010.1
20260510011234 73 0.0 0.0 0.00 0.02 0.02 51 1010.1
20260510010731 73 0.0 0.0 0.00 0.02 0.02 50 1010.1
20260510010227 74 0.0 0.0 0.00 0.02 0.02 49 1010.2
20260510005724 74 0.0 0.0 0.00 0.02 0.02 49 1010.0
20260510005221 74 0.0 0.0 0.00 0.02 0.02 49 1010.1
20260510004718 74 0.0 0.0 0.00 0.02 0.02 48 1010.0
20260510004217 75 0.0 0.0 0.00 0.02 0.02 48 1009.8
20260510003714 75 0.0 0.0 0.00 0.02 0.02 48 1009.8
20260510003209 75 0.0 0.0 0.00 0.02 0.02 48 1009.6
20260510002708 75 0.0 0.0 0.00 0.02 0.02 47 1009.7
20260510002206 75 0.0 0.0 0.00 0.02 0.02 46 1009.5
20260510001703 75 0.0 0.0 0.00 0.02 0.02 46 1009.6
20260510001201 75 0.0 0.0 0.00 0.02 0.02 46 1009.4
20260510000656 76 0.0 0.0 0.00 0.02 0.02 46 1009.3
20260510000154 76 0.0 0.0 0.00 0.02 0.02 46 1009.3
20260509235651 76 0.0 0.0 0.00 0.02 0.02 46 1009.2
20260509235147 76 0.0 0.0 0.00 0.02 0.02 45 1009.3
20260509234643 76 0.0 0.0 0.00 0.02 0.02 44 1009.4
20260509234140 76 0.0 0.0 0.00 0.02 0.02 44 1009.2
20260509233638 76 0.0 0.0 0.00 0.02 0.02 45 1009.5
20260509233135 77 0.0 0.0 0.00 0.02 0.02 44 1009.3
20260509232631 77 0.0 0.0 0.00 0.02 0.02 43 1009.3
20260509232128 77 0.0 0.0 0.00 0.02 0.02 43 1009.3
20260509231625 77 0.0 0.0 0.00 0.02 0.02 42 1009.0
20260509231123 77 0.0 0.0 0.00 0.02 0.02 42 1009.2
20260509230619 77 0.0 0.0 0.00 0.02 0.02 41 1009.2
20260509230117 77 0.0 0.0 0.00 0.02 0.02 41 1009.2
20260509225612 77 0.0 0.0 0.00 0.02 0.02 40 1008.9
20260509225108 77 0.0 0.0 0.00 0.02 0.02 41 1009.1
20260509224603 77 0.0 0.0 0.00 0.02 0.02 39 1009.2
20260509224101 77 0.0 0.0 0.00 0.02 0.02 40 1008.9
20260509223557 77 0.0 0.0 0.00 0.02 0.02 40 1008.9
20260509223055 77 0.0 0.0 0.00 0.02 0.02 40 1009.0
20260509222551 77 0.0 0.0 0.00 0.02 0.02 39 1009.0
20260509222047 77 0.0 0.0 0.00 0.02 0.02 41 1009.1
20260509221543 77 0.0 0.0 0.00 0.02 0.02 40 1009.1
20260509221039 77 0.0 0.0 0.00 0.02 0.02 38 1009.0
20260509220535 77 0.0 0.0 0.00 0.02 0.02 35 1008.9
20260509220032 77 0.0 0.0 0.00 0.02 0.02 40 1008.9
20260509215527 77 0.0 0.0 0.00 0.02 0.02 39 1008.8
20260509215024 77 0.0 0.0 0.00 0.02 0.02 37 1009.0
20260509214521 77 0.0 0.0 0.00 0.02 0.02 39 1009.0
20260509214018 77 0.0 0.0 0.00 0.02 0.02 39 1009.0
20260509213514 77 0.0 0.0 0.00 0.02 0.02 38 1008.9
20260509213011 78 0.0 0.0 0.00 0.02 0.02 37 1008.9
20260509212508 78 0.0 0.0 0.00 0.02 0.02 39 1009.0
20260509212005 77 0.0 0.0 0.00 0.02 0.02 37 1009.2
20260509211500 77 0.0 0.0 0.00 0.02 0.02 36 1009.1
20260509210957 77 0.0 0.0 0.00 0.02 0.02 37 1009.1
20260509210454 77 0.0 0.0 0.00 0.02 0.02 39 1009.1
20260509205950 77 0.0 0.0 0.00 0.02 0.02 44 1009.3
20260509205445 77 0.0 0.0 0.00 0.02 0.02 45 1009.3
20260509204941 77 0.0 0.0 0.00 0.02 0.02 43 1009.2
20260509204437 77 0.0 0.0 0.00 0.02 0.02 45 1009.3
20260509203934 77 0.0 0.0 0.00 0.02 0.02 45 1009.2
20260509203429 78 0.0 0.0 0.00 0.02 0.02 45 1009.4
20260509202927 78 0.0 0.0 0.00 0.02 0.02 46 1009.5
20260509202423 78 0.0 0.0 0.00 0.02 0.02 41 1009.6
20260509201919 78 0.0 0.0 0.00 0.02 0.02 47 1009.6
20260509201414 77 0.0 0.0 0.00 0.02 0.02 48 1009.5